This demonstration page uses our WeatherBlox Daily Observations layout. Learn more.

Left ArrowRight Arrow

44.89941, -97.11507

Hourly Observations for January 25, 2021

Temp ( °F °C ) Dew Point ( °F °C ) Humidity (%) Winds ( mph kmh ) Pressure ( in mb ) Visibility ( mi km ) Precip ( " mm )
12:53 am 00:53 Cloudy 13 -10.6 2 -16.7 61 61 SE 9 15 30.14 1021 10 16 0.00 0.00
1:53 am 01:53 Cloudy 13 -10.6 4 -15.6 67 67 ESE 8 13 30.10 1019 10 16 0.00 0.00
2:53 am 02:53 Clear 12 -11.1 3 -16.1 67 67 Calm 30.09 1019 10 16 0.00 0.00
3:53 am 03:53 Mostly Cloudy 10 -12.2 2 -16.7 69 69 E 6 9 30.11 1020 10 16 0.00 0.00
4:53 am 04:53 Cloudy 10 -12.2 3 -16.1 73 73 E 8 13 30.08 1019 10 16 0.00 0.00
5:53 am 05:53 Cloudy 11 -11.7 4 -15.6 73 73 E 8 13 30.10 1019 10 16 0.00 0.00
6:53 am 06:53 Mostly Cloudy 9 -12.8 3 -16.1 77 77 E 9 15 30.12 1020 10 16 0.00 0.00
7:53 am 07:53 Clear 8 -13.3 3 -16.1 80 80 E 12 19 30.12 1020 10 16 0.00 0.00
8:53 am 08:53 Cloudy 9 -12.8 3 -16.1 77 77 E 14 22 30.12 1020 10 16 0.00 0.00
9:53 am 09:53 Cloudy 11 -11.7 3 -16.1 70 70 E 12 19 30.14 1021 10 16 0.00 0.00
10:53 am 10:53 Cloudy 13 -10.6 4 -15.6 67 67 E 13 20 30.13 1020 10 16 0.00 0.00
11:53 am 11:53 Mostly Cloudy 14 -10 4 -15.6 64 64 E 9 15 30.12 1020 10 16 0.00 0.00
12:53 pm 12:53 Cloudy 12 -11.1 3 -16.1 67 67 ENE 13 20 30.09 1019 10 16 0.00 0.00
1:53 pm 13:53 Cloudy 14 -10 3 -16.1 61 61 E 15 24 30.06 1018 10 16 0.00 0.00
2:53 pm 14:53 Mostly Cloudy 13 -10.6 2 -16.7 61 61 ENE 13 20 30.08 1019 10 16 0.00 0.00
3:53 pm 15:53 Cloudy 12 -11.1 1 -17.2 61 61 ENE 14 22 30.09 1019 10 16 0.00 0.00
4:53 pm 16:53 Cloudy 11 -11.7 1 -17.2 64 64 NE 9 15 30.11 1020 10 16 0.00 0.00
5:53 pm 17:53 Cloudy 11 -11.7 4 -15.6 73 73 NNE 9 15 30.12 1020 10 16 0.00 0.00
6:53 pm 18:53 Cloudy 11 -11.7 3 -16.1 70 70 NNE 9 15 30.14 1021 10 16 0.00 0.00
7:53 pm 19:53 Cloudy 11 -11.7 3 -16.1 70 70 NNE 9 15 30.16 1022 10 16 0.00 0.00
8:53 pm 20:53 Cloudy 11 -11.7 3 -16.1 70 70 NNE 13 20 30.17 1022 10 16 0.00 0.00
10:53 pm 22:53 Cloudy 11 -11.7 3 -16.1 70 70 NNE 14 22 30.16 1022 10 16 0.00 0.00
11:53 pm 23:53 Cloudy 11 -11.7 3 -16.1 70 70 NNE 13 20 30.16 1021 10 16 0.00 0.00

Powered by AerisWeather